Location: Haliburton Scout Reserve
(45.0900°N, 78.3200°W)
Time: 07:26:47
(UTC-04:00)

CUBESAT XI-V - Visible Passes

Search period start: 22 May 2022 00:00
Search period end: 01 June 2022 00:00
Orbit: 668 x 690 km, 98.1° (Epoch: 21 May)

Date Brightness Start Highest point End Pass type
(mag) Time Alt. Az. Time Alt. Az. Time Alt. Az.
22 May ? 01:16:39 10° ENE 01:18:18 12° ENE 01:19:57 10° NE visible
22 May ? 02:52:57 37° SSE 02:54:50 86° ENE 02:59:34 10° NNW visible
22 May ? 04:31:27 10° WSW 04:32:44 11° W 04:34:00 10° WNW visible
23 May ? 01:50:29 13° ESE 01:53:27 23° ENE 01:57:09 10° NNE visible
23 May ? 03:28:53 32° SW 03:30:28 43° W 03:34:58 10° NNW visible
24 May ? 02:26:24 26° SE 02:28:46 48° ENE 02:33:18 10° N visible
24 May ? 04:04:48 17° WSW 04:06:18 20° W 04:09:45 10° NW visible
25 May ? 01:25:11 10° E 01:27:37 14° ENE 01:30:04 10° NNE visible
25 May ? 03:02:20 36° S 03:04:16 78° WSW 03:09:01 10° NNW visible
26 May ? 01:59:52 15° ESE 02:02:49 28° ENE 02:06:48 10° N visible
26 May ? 03:38:15 26° SW 03:39:58 35° W 03:44:16 10° NNW visible
27 May ? 02:35:47 27° SE 02:38:10 59° ENE 02:42:48 10° N visible
27 May ? 04:14:11 14° WSW 04:15:50 16° W 04:18:46 10° NW visible
28 May ? 01:33:56 10° E 01:36:56 17° ENE 01:39:55 10° NNE visible
28 May ? 03:11:43 33° S 03:13:43 63° WSW 03:18:23 10° NNW visible
29 May ? 02:09:14 17° ESE 02:12:09 34° ENE 02:16:21 10° N visible
29 May ? 03:47:39 22° SW 03:49:26 28° W 03:53:30 10° NW visible
30 May ? 02:45:10 29° SSE 02:47:33 73° ENE 02:52:14 10° N visible
30 May ? 04:23:34 11° WSW 04:25:21 13° W 04:27:32 10° WNW visible
31 May ? 01:42:48 10° ESE 01:46:12 20° ENE 01:49:37 10° NNE visible
31 May ? 03:21:05 30° SSW 03:23:08 50° W 03:27:42 10° NNW visible
